Regional Weather Roundup
Issued by NWS Green Bay, WI

Home | Current Version | Previous Version | Text Only | Print | Product List | Glossary On
Versions: 1 2 3 4 5 6 7 8 9 10 11 12 13 14 15 16 17 18 19 20 21 22 23 24 25 26 27 28 29 30 31 32 33 34 35 36 37 38 39 40 41 42 43 44 45 46 47 48 49 50
000
ASUS43 KGRB 210710
RWRGRB

NORTH-CENTRAL AND NORTHEAST WISCONSIN REGIONAL WEATHER ROUNDUP
NATIONAL WEATHER SERVICE GREEN BAY WI
200 AM CDT THU AUG 21 2014

WIZ005-009-010>012-018-019-210800-
NORTH CENTRAL WISCONSIN

CITY           SKY/WX    TMP DP  RH WIND       PRES   REMARKS
IRONWOOD       CLOUDY    54  54 100 CALM      29.94S VSB 3/4
MANITOWISH WTR PTCLDY    60  60  99 SE3       29.98S
ARBOR VITAE    CLEAR     59  55  87 CALM      29.98S FOG
EAGLE RIVER    CLOUDY    62  61  97 CALM      29.98S
LAND O LAKES   CLOUDY    61  61  98 CALM      29.99F
RHINELANDER    FOG       57  57 100 CALM      29.99R VSB 1
PHILLIPS       MOCLDY    55  55 100 CALM      29.96S
ANTIGO           N/A     56  56  99 CALM      29.98S FOG
TOMAHAWK       FOG       52  51  97 CALM      29.98S VSB 1/2
MERRILL          N/A     55  55 100 CALM      29.97S FOG
$$

WIZ013-073-210800-
NORTHEAST WISCONSIN

CITY           SKY/WX    TMP DP  RH WIND       PRES   REMARKS
IRON MOUNTAIN  CLOUDY    64  60  87 CALM      29.97S
MARINETTE      CLOUDY    64  63  94 CALM      29.95S
OCONTO         CLOUDY    63  63 100 SW3       29.96R
$$

WIZ017-030-035>037-045-210800-
CENTRAL WISCONSIN

CITY           SKY/WX    TMP DP  RH WIND       PRES   REMARKS
MEDFORD        MOCLDY    61  60  97 SE3       29.96S
WAUSAU         MOCLDY    60  59  96 E3        29.95S
MOSINEE        MOCLDY    61  61 100 E3        29.97F
MARSHFIELD     MOCLDY    63  61  93 E5        29.96R
WISC RAPIDS    MOCLDY    65  62  90 SE5       29.96F
STEVENS POINT  MOCLDY    59  58  96 CALM      29.96F
WAUPACA        MOCLDY    64  63  95 CALM      29.96F
SHAWANO        FOG       61  60  94 CALM      29.97R VSB 1/4
CLINTONVILLE   MOCLDY    59  59 100 CALM      29.96S
$$

WIZ038-039-048-051-210800-
FOX VALLEY

CITY           SKY/WX    TMP DP  RH WIND       PRES   REMARKS
NWS GREEN BAY  PTCLDY    62  61  96 S3        29.97S
APPLETON       MOCLDY    64  63  94 CALM      29.97S
OSHKOSH        MOCLDY    64  63  96 S5        29.96S
FOND DU LAC    MOCLDY    65  61  87 S3        29.96F
$$

WIZ022-050-052-210800-
EAST CENTRAL WISCONSIN

CITY           SKY/WX    TMP DP  RH WIND       PRES   REMARKS
STURGEON BAY   CLOUDY    64  61  88 S3        29.97S
MANITOWOC      FOG       63  63 100 CALM      29.97F VSB 1/2
SHEBOYGAN      PTCLDY    61  60  97 CALM      29.97F FOG
$$

LMZ563-521-522-541>543-210800-
LAKESHORE

STATION/POSITION TIME  TEMP    WIND        PRES    VSBY  WAVE
                       AIR SEA DIR/SP/G                  HT/PER
                 (UTC) (F)     (DEG/KT/KT) (MB)    (MI)  (FT/S)
SHEBOYGAN LKSHOR 0700   66 67  150/  1/  1 1014.8F
KEWAUNEE LKSHORE 0700   61      CALM  /  2 1013.9S
ALGOMA MARINA    0700             CALM       N/A
NORTHPORT PIER   0700   64     200/  2/  5 1014.6S
N MID LAKE BUOY  0700   63 62  220/  4/  6 1014.3R         0
S GREEN BAY BUOY 0600   67     VRB  6      1015.4R
SISTER BAY LKSHO 0600   65     170/  5/  7   N/A
CHAMBERS ISLAND  0700   65     160/  1/  3 1014.6S
MENOMINEE LKSHOR 0700   67     140/  4/  4 1015.0R
$$



USA.gov is the U.S. government's official web portal to all federal, state and local government web resources and services.